Location: Be?i?
(36.9044°N, 30.1006°E)
Time: 10:01:56
(UTC+00:00)

Cosmos 676 Rocket - Pass Details

Date: 05 August 2024
Orbit: 752 x 781 km, 74.0° (Epoch: 12 September)

Event Time Altitude Azimuth Distance (km) Brightness Sun altitude
Rises 18:53:34 0° 344° (NNW) 3,211 8.2 -19.9°
Reaches altitude 10° 18:55:57 10° 347° (NNW) 2,285 7.2 -20.3°
Maximum altitude 19:01:07 71° 71° (ENE) 802 3.9 -21.0°
Enters shadow 19:02:30 48° 138° (SE) 985 4.1 -21.2°
